Zurück zum Katalog

CZ-4C DEB

AktivLEO
NORAD 38305·DEBRIS·🇨🇳 China

Gestartet Mar 5, 2010 von Jiuquan Satellite Launch Center

Loading…

Nächste Überflüge (nächste 24 Stunden)

TLE

AktuellSource: Space-Track

Epoche: Sep 14, 2026, 13:19 UTC

1 38305U 10009J   26257.55539787 -.00000021  00000-0  15709-3 0  9999
2 38305  63.4880 314.5922 0298589 352.1351   7.5026 13.00375617619422

Verfolge CZ-4C DEB in Echtzeit mit AllMySat

Download on the App Store